Question-and-Answer Resource for the Building Energy Modeling Community
Get started with the Help page
Ask Your Question

JustinShultz's profile - karma

JustinShultz's karma change log

10 0 OpenStudio User Interface Scaling Problems (Very Small Buttons) ( 2019-08-15 10:48:21 -0500 )

2 0 OpenStudio/EnergyPlus Thermal Zone Outdoor Air Balance with Exhaust Fan Only and 100% Outside Air System ( 2019-08-08 10:22:38 -0500 )

10 0 OpenStudio/EnergyPlus Thermal Zone Outdoor Air Balance with Exhaust Fan Only and 100% Outside Air System ( 2019-08-01 11:49:33 -0500 )

15 0 FMU Dymola variable input ( 2019-06-12 04:12:36 -0500 )

10 0 FMU Dymola variable input ( 2019-06-12 04:12:32 -0500 )

10 0 FMU Dymola variable input ( 2019-06-06 13:14:54 -0500 )

10 0 DView Loading Data Extremely Slowly ( 2019-05-20 12:50:35 -0500 )

10 0 OpenStudio User Interface Scaling Problems (Very Small Buttons) ( 2019-05-13 15:21:52 -0500 )

10 0 OpenStudio User Interface Scaling Problems (Very Small Buttons) ( 2019-03-22 09:04:40 -0500 )

10 0 OpenStudio User Interface Scaling Problems (Very Small Buttons) ( 2019-03-22 08:00:01 -0500 )

10 0 OpenStudio User Interface Scaling Problems (Very Small Buttons) ( 2019-03-22 06:24:03 -0500 )

0 -2 OpenStudio User Interface Scaling Problems (Very Small Buttons) ( 2019-03-22 06:22:37 -0500 )

10 0 OpenStudio User Interface Scaling Problems (Very Small Buttons) ( 2019-03-20 15:33:01 -0500 )

10 0 DView Loading Data Extremely Slowly ( 2019-03-11 20:05:03 -0500 )

10 0 Data Viewer like DView but for Sub-hourly Data ( 2019-03-11 19:40:15 -0500 )

10 0 Energyplus FMU in Pyfmi ( 2019-02-11 08:00:07 -0500 )

0 -10 Energyplus FMU in Pyfmi ( 2019-02-11 08:00:05 -0500 )

10 0 Energyplus FMU in Pyfmi ( 2019-02-11 07:57:43 -0500 )

10 0 Energyplus FMU in Pyfmi ( 2019-02-10 09:55:55 -0500 )

2 0 OpenStudio User Interface Scaling Problems (Very Small Buttons) ( 2019-02-07 15:11:39 -0500 )

10 0 OpenStudio User Interface Scaling Problems (Very Small Buttons) ( 2019-02-07 12:51:44 -0500 )

10 0 DView Loading Data Extremely Slowly ( 2018-07-31 09:45:43 -0500 )

2 0 Best method to define individual space properties ( 2018-07-26 17:18:51 -0500 )

10 0 Best method to define individual space properties ( 2018-07-25 05:03:54 -0500 )

10 0 Best method to define individual space properties ( 2018-07-24 19:09:25 -0500 )

10 0 COP of District Cooling Component ( 2018-07-10 19:27:18 -0500 )

10 0 Solar Distribution: FullExterior vs FullInteriorAndExterior ( 2018-06-14 20:38:46 -0500 )

10 0 OpenStudio Humidity Setpoint Not Met ( 2018-06-08 06:42:55 -0500 )

10 0 COP of District Cooling Component ( 2018-06-01 10:02:11 -0500 )

2 0 COP of District Cooling Component ( 2018-06-01 09:47:01 -0500 )

10 0 OpenStudio/EnergyPlus Thermal Zone Outdoor Air Balance with Exhaust Fan Only and 100% Outside Air System ( 2018-05-26 12:58:37 -0500 )

10 0 Point of Use Electrical Hot Water Heater ( 2018-05-25 08:29:55 -0500 )

2 0 Point of Use Electrical Hot Water Heater ( 2018-05-24 15:56:23 -0500 )

10 0 Point of Use Electrical Hot Water Heater ( 2018-05-24 15:49:16 -0500 )

10 0 Access to Cold Water Supply Temperature for WaterUse:Equipment in OpenStudio ( 2018-05-18 10:46:10 -0500 )

10 0 Solar study for simple building ( 2018-04-17 19:08:50 -0500 )

10 0 DView Loading Data Extremely Slowly ( 2018-04-13 15:28:57 -0500 )

10 0 ASHRAE System for Server / Computer Room ( 2018-04-04 17:27:09 -0500 )

10 0 ASHRAE System for Server / Computer Room ( 2018-04-04 14:11:14 -0500 )

2 0 ASHRAE System for Server / Computer Room ( 2018-04-04 08:37:00 -0500 )

10 0 ASHRAE System for Server / Computer Room ( 2018-04-04 01:03:49 -0500 )

10 0 Heat Exchanger to Preheat Service/Domestic Hot Water ( 2018-03-26 18:33:55 -0500 )

2 0 DView Loading Data Extremely Slowly ( 2018-03-12 08:29:10 -0500 )

10 0 DView Loading Data Extremely Slowly ( 2018-03-09 12:16:10 -0500 )

10 0 DView Loading Data Extremely Slowly ( 2018-03-09 10:32:31 -0500 )

10 0 DView Loading Data Extremely Slowly ( 2018-03-09 10:07:09 -0500 )

10 0 FMU Export of Python Code or Python Interface with FMI Standard for Use in EnergyPlus Co-Simulation ( 2018-02-12 23:07:50 -0500 )

10 0 Access to Cold Water Supply Temperature for WaterUse:Equipment in OpenStudio ( 2017-12-18 06:43:36 -0500 )

10 0 Heat Exchanger to Preheat Service/Domestic Hot Water ( 2017-12-06 13:22:15 -0500 )

2 0 Data Viewer like DView but for Sub-hourly Data ( 2017-10-26 13:48:59 -0500 )

10 0 Data Viewer like DView but for Sub-hourly Data ( 2017-10-25 16:06:52 -0500 )

10 0 Solar study for simple building ( 2017-10-12 00:44:24 -0500 )

15 0 Solar study for simple building ( 2017-10-11 23:13:20 -0500 )

10 0 Solar study for simple building ( 2017-10-11 13:35:28 -0500 )

10 0 Initialize or Start WaterHeater:Mixed Cold ( 2017-08-04 15:42:13 -0500 )

10 0 Initialize or Start WaterHeater:Mixed Cold ( 2017-08-04 10:32:01 -0500 )

2 0 How does "autosized" work in EnergyPlus OpenStudio with External Inputs? ( 2017-07-31 08:13:18 -0500 )

10 0 How does "autosized" work in EnergyPlus OpenStudio with External Inputs? ( 2017-07-31 04:28:50 -0500 )

10 0 How does "autosized" work in EnergyPlus OpenStudio with External Inputs? ( 2017-07-27 20:30:06 -0500 )

10 0 How does "autosized" work in EnergyPlus OpenStudio with External Inputs? ( 2017-07-27 17:42:30 -0500 )

10 0 How to Model a Simple Cooling Panel in OpenStudio ( 2017-07-20 21:04:53 -0500 )

10 0 Matching Boiler:HotWater with a WaterHeater:Mixed ( 2017-07-18 17:24:15 -0500 )

10 0 Matching Boiler:HotWater with a WaterHeater:Mixed ( 2017-07-18 12:45:52 -0500 )

10 0 EnergyPlus Parameterize an IMF for Parametric Simulation ( 2016-12-12 16:15:50 -0500 )

2 0 Externally Calculated Renewable Energy as Input to EnergyPlus ( 2016-11-10 15:06:10 -0500 )

10 0 WindowMaterial:Gas Type, Calculations, and Properties ( 2016-11-03 11:01:33 -0500 )

10 0 WindowMaterial:Gas Type, Calculations, and Properties ( 2016-11-03 09:16:44 -0500 )

10 0 WindowMaterial:Gas Type, Calculations, and Properties ( 2016-11-02 14:23:47 -0500 )

2 0 Schedule/Actuate Adjacent Air or Surface Temperature of a Window ( 2016-10-20 09:23:30 -0500 )

10 0 Schedule/Actuate Adjacent Air or Surface Temperature of a Window ( 2016-10-19 12:31:18 -0500 )

10 0 windows in Sketchup disappear ( 2016-10-18 15:04:08 -0500 )

10 0 windows in Sketchup disappear ( 2016-10-18 14:23:06 -0500 )

10 0 windows in Sketchup disappear ( 2016-10-17 14:05:04 -0500 )

10 0 windows in Sketchup disappear ( 2016-10-17 13:31:51 -0500 )

2 0 eppy with EnergyPlus 8.5 and 'charmap' codec error ( 2016-09-29 10:44:49 -0500 )

10 0 eppy with EnergyPlus 8.5 and 'charmap' codec error ( 2016-09-27 12:31:18 -0500 )

10 0 eppy with EnergyPlus 8.5 and 'charmap' codec error ( 2016-09-27 11:16:14 -0500 )

10 0 Water Side Economizer (HeatExchanger:FluidToFluid) Override Will Not Activate ( 2016-09-22 16:17:28 -0500 )

10 0 Schedule/Actuate Adjacent Air or Surface Temperature of a Window ( 2016-09-17 09:28:12 -0500 )

10 0 Schedule/Actuate Adjacent Air or Surface Temperature of a Window ( 2016-09-16 17:46:10 -0500 )

10 0 Externally Calculated Renewable Energy as Input to EnergyPlus ( 2016-09-09 00:07:07 -0500 )

10 0 Externally Calculated Renewable Energy as Input to EnergyPlus ( 2016-09-07 11:35:35 -0500 )

0 -1 Use Radiance for thermal load calculation ( 2016-09-07 10:47:33 -0500 )

10 0 Externally Calculated Renewable Energy as Input to EnergyPlus ( 2016-09-07 10:11:12 -0500 )

10 0 Externally Calculated Renewable Energy as Input to EnergyPlus ( 2016-09-06 18:38:31 -0500 )

2 0 Fatal Error: Number of ObjectDef Alpha Args > Size of AlphaArg Array ( 2016-08-15 16:49:54 -0500 )

10 0 Fatal Error: Number of ObjectDef Alpha Args > Size of AlphaArg Array ( 2016-08-15 16:37:17 -0500 )

10 0 Energyplus example error ( 2016-07-20 11:43:01 -0500 )

2 0 Access to Cold Water Supply Temperature for WaterUse:Equipment in OpenStudio ( 2016-07-20 10:00:45 -0500 )

10 0 Multizone Packaged Rooftop Heat Pump for ASHRAE Baseline ( 2016-07-20 05:33:27 -0500 )

10 0 Access to Cold Water Supply Temperature for WaterUse:Equipment in OpenStudio ( 2016-07-20 04:49:53 -0500 )

10 0 Access to Cold Water Supply Temperature for WaterUse:Equipment in OpenStudio ( 2016-07-19 18:42:26 -0500 )

2 0 Multizone Packaged Rooftop Heat Pump for ASHRAE Baseline ( 2016-07-11 15:06:54 -0500 )

10 0 Multizone Packaged Rooftop Heat Pump for ASHRAE Baseline ( 2016-07-08 08:36:36 -0500 )

10 0 ASHRAE Humidity Requirements for Systems that do not Incorporate Humidity Control ( 2016-07-07 11:28:35 -0500 )

10 0 ASHRAE Humidity Requirements for Systems that do not Incorporate Humidity Control ( 2016-07-07 10:18:53 -0500 )

2 0 ASHRAE Humidity Requirements for Systems that do not Incorporate Humidity Control ( 2016-07-07 09:15:28 -0500 )

10 0 ASHRAE Humidity Requirements for Systems that do not Incorporate Humidity Control ( 2016-07-07 09:09:37 -0500 )

2 0 OpenStudio Humidity Setpoint Not Met ( 2016-07-06 16:55:01 -0500 )

10 0 OpenStudio Humidity Setpoint Not Met ( 2016-06-30 17:16:44 -0500 )